SCP
-0 -0 0 0 -0 -0 0 -0 -0 -0 -0 0 0 0 0 0 0 0 0 0 0 0 -0 -0 -0 -0 -0 -0 -0 -0 -0 -0 -0 -0 0 0 0 0 0 0 0 0 0
0 0 0 0 -0 0 0 -0 -0 -0 -0 0 0 -0 0 0 0 0 0 0 0 0 -0 -0 -0 -0 -0 -0 -0 -0 -0 -0 -0 -0 0 0 0 0 0 0 0 0 0
-0 0 -0 -0 -0 0 0 0 0 0 -0 -0 0 -0 -0 0 0 -0 -0 -0 0 -0 0 -0 -0 -0 -0 -0 -0 -0 -0 -0 -0 -0 -0 0 0 0 -0 0 0 0 0
-0 0 -0 -0 0 0 0 0 0 0 0 -0 -0 -0 -0 -0 -0 0 0 0 -0 -0 -0 -0 -0 -0 -0 -0 -0 -0 -0 -0 -0 -0 -0 -0 -0 0 0 -0 0 0 0
0 -0 -0 0 -0 0 0 0 0 0 0 0 0 0 -0 0 -0 -0 0 0 0 0 0 0 -0 -0 -0 -0 -0 -0 -0 -0 -0 -0 0 0 0 0 0 0 0 0 0
0 -0 -0 -0 -0 0 -0 0 0 0 0 0 0 0 0 0 0 -0 -0 -0 -0 0 0 0 0 0 -0 -0 -0 -0 -0 -0 -0 -0 -0 0 0 0 0 0 0 0 0
0 0 -0 -0 -0 -0 -0 -0 -0 0 0 0 0 0 -0 0 0 0 0 -0 -0 -0 -0 -0 -0 -0 -0 -0 -0 -0 -0 -0 -0 -0 -0 -0 -0 -0 -0 0 -0 -0 -0
0 -0 0 0 0 0 0 0 -0 -0 0 0 -0 0 0 0 0 0 0 -0 -0 -0 -0 -0 0 0 -0 -0 0 -0 -0 -0 -0 -0 -0 -0 -0 0 -0 -0 -0 -0 -0
-0 0 -0 0 0 0 0 0 0 0 0 -0 -0 0 0 0 0 0 0 0 0 -0 -0 -0 -0 -0 -0 -0 -0 -0 -0 -0 -0 -0 -0 -0 -0 -0 -0 -0 -0 -0 -0
0 0 0 -0 0 -0 -0 -0 -0 0 0 0 0 0 0 0 0 -0 0 0 -0 0 0 0 0 -0 -0 -0 -0 -0 -0 0 -0 -0 -0 -0 0 0 -0 -0 -0 -0 -0
-0 0 0 0 -0 0 -0 -0 -0 0 0 0 0 0 0 0 0 0 -0 0 0 0 0 0 0 -0 -0 -0 -0 -0 -0 0 0 0 -0 0 -0 -0 -0 -0 -0 -0 -0
0 0 0 0 0 0 0 -0 -0 -0 0 -0 0 0 0 0 0 0 -0 0 -0 0 0 0 0 -0 0 0 0 -0 -0 0 0 0 0 0 0 0 -0 -0 -0 -0 0
0 -0 0 0 0 0 0 0 -0 -0 0 -0 0 0 0 0 0 0 0 0 0 0 -0 0 0 0 0 0 0 0 -0 -0 -0 0 0 0 0 0 0 -0 -0 -0 -0
0 -0 0 0 0 -0 0 0 0 -0 -0 -0 -0 0 0 0 0 0 0 0 0 0 0 0 0 0 0 0 0 0 0 0 0 0 0 0 0 0 0 -0 -0 -0 0
-0 -0 0 0 0 0 0 0 0 0 0 0 0 -0 0 0 0 0 0 0 0 0 0 0 0 0 0 0 0 0 0 0 0 0 0 0 0 0 0 0 0 0 0
0 0 0 0 0 0 0 0 0 0 0 0 0 0 0 0 0 0 0 0 0 0 0 0 0 0 0 0 0 0 0 0 0 0 0 0 0 0 0 0 0 0 0
0 0 0 0 0 0 0 0 0 0 0 0 0 0 0 0 0 0 0 0 0 0 0 0 0 0 0 0 0 0 0 0 0 0 0 0 0 0 0 0 0 0 0
0 0 0 0 0 0 0 0 0 0 0 0 0 0 0 0 0 0 0 0 0 0 0 0 0 0 0 0 0 0 0 0 0 0 0 0 0 0 0 0 0 0 0
0 0 0 0 0 0 0 0 0 0 0 0 0 0 0 0 0 0 0 0 0 0 0 0 0 0 0 0 0 0 1 1 0 0 0 0 0 0 0 0 0 0 0
0 0 0 0 0 0 0 0 0 0 0 0 0 0 0 0 0 0 0 0 0 0 0 0 0 0 0 0 0 1 1 1 1 1 1 0 0 0 0 0 0 0 0
0 0 0 0 0 0 0 0 0 0 0 0 0 0 0 0 0 0 0 0 0 0 0 0 0 0 0 0 0 1 1 1 0 1 1 2 2 1 1 0 0 0 0
0 0 0 0 0 0 0 0 0 0 0 0 0 0 0 0 0 0 0 0 0 0 0 0 0 0 0 0 0 0 1 1 1 1 1 1 2 1 1 1 0 0 0
0 0 0 0 0 0 0 0 0 0 0 0 0 0 0 0 0 0 0 0 0 0 0 0 0 0 0 0 0 0 0 1 1 1 1 1 2 1 1 1 0 0 0
0 0 0 0 0 0 0 0 0 0 0 0 0 0 0 0 0 0 0 0 0 0 0 0 0 0 0 0 0 0 0 0 1 1 1 1 1 1 2 1 0 0 0
0 0 0 0 0 0 0 0 0 0 0 0 0 0 0 0 0 0 0 0 0 0 0 0 0 0 0 0 0 0 0 0 0 0 1 1 1 1 1 1 2 0 0
0 0 0 0 0 0 0 0 0 0 0 0 0 0 0 0 0 0 0 0 0 0 0 0 0 0 0 0 0 0 0 0 1 0 1 1 1 1 1 0 0 0 0
Wind_Speed_500mb
34 34 23 11 13 15 16 21 23 24 24 23 22 23 22 20 18 20 24 28 30 32 29 39 33 33 30 27 24 22 21 19 21 24 24 22 22 18 16 18 17 18 16
28 32 31 18 16 13 18 17 19 21 23 24 22 20 18 18 19 18 19 26 33 38 38 36 38 36 32 30 30 26 24 21 21 26 28 22 23 21 17 19 18 18 17
22 30 32 24 31 19 17 13 20 21 23 26 22 19 19 19 20 20 20 19 21 23 26 26 28 30 30 29 28 28 25 23 22 27 29 27 25 24 20 20 20 18 15
24 29 27 21 23 22 19 21 21 20 20 26 24 23 22 22 21 21 23 23 24 23 23 23 26 27 30 28 29 28 26 25 24 27 30 28 27 25 23 22 20 18 16
23 24 21 21 24 22 20 25 25 21 21 24 24 26 25 20 22 20 19 21 29 31 31 29 28 28 28 30 31 30 29 25 25 27 29 30 29 27 25 24 21 19 17
27 27 24 21 26 26 18 22 26 26 25 22 24 23 25 24 25 27 28 27 28 32 34 37 38 40 36 33 32 31 30 28 27 27 26 30 29 30 28 26 23 21 20
31 30 28 28 28 22 18 20 25 30 26 27 25 21 21 26 29 30 27 32 37 36 37 36 36 32 36 37 36 33 28 25 25 25 26 29 30 29 29 29 26 24 23
32 35 31 28 28 26 23 21 20 24 29 25 27 21 14 22 25 26 29 28 30 39 41 40 38 38 34 33 29 25 29 25 24 22 25 27 30 28 28 28 26 25 23
31 33 35 33 35 33 29 23 20 21 27 26 24 15 8 3 12 9 17 25 32 29 34 39 46 41 39 37 38 34 33 29 27 23 21 22 25 25 26 26 26 24 22
32 28 30 32 33 33 32 29 26 27 28 28 28 27 26 29 21 19 18 24 15 26 24 23 30 37 43 42 40 38 36 34 30 27 25 20 22 23 24 25 26 24 21
19 16 18 17 29 30 28 26 34 32 31 31 33 28 28 27 29 35 41 26 25 30 30 29 26 34 43 40 37 39 39 39 36 32 30 24 24 21 23 23 24 23 21
19 21 21 8 17 20 26 30 33 37 37 35 32 31 30 29 31 28 30 35 41 33 27 25 33 36 42 44 42 40 41 30 31 34 35 29 24 22 22 23 22 21 20
16 15 19 14 17 18 22 25 27 27 36 44 36 30 33 34 33 35 36 38 41 42 42 35 31 37 40 43 38 35 35 33 28 30 32 34 28 24 24 25 25 23 22
16 15 15 17 17 17 13 17 24 24 32 36 37 37 36 40 41 39 39 41 45 44 46 42 30 27 25 33 34 36 38 36 32 30 38 39 35 32 32 29 30 29 28
25 21 19 16 13 11 13 16 18 17 21 26 31 36 40 41 39 40 43 45 44 42 50 46 29 6 7 18 32 37 39 34 33 32 40 40 38 33 32 35 34 34 32
24 22 15 9 7 5 7 9 13 18 24 24 27 32 36 35 35 38 39 40 44 46 57 47 40 25 26 17 15 27 36 39 36 35 41 41 37 34 34 35 33 33 35
22 18 14 12 13 14 17 21 24 26 28 30 32 36 36 35 34 34 33 41 41 45 54 55 48 35 29 26 20 22 27 40 39 42 44 44 38 33 31 34 36 35 35
22 19 19 19 20 25 29 32 33 34 34 36 39 41 42 38 34 33 30 33 41 47 52 59 52 49 38 32 31 27 24 28 41 44 46 46 46 44 38 35 35 39 41
18 19 22 29 31 33 37 40 40 39 37 39 40 39 34 36 38 32 32 30 31 39 47 58 64 59 51 42 39 39 39 34 35 45 50 46 52 42 41 41 40 40 42
18 21 28 32 32 34 34 35 35 40 45 46 48 48 47 47 47 47 47 44 41 42 44 50 58 63 62 56 53 48 45 45 38 39 45 51 56 51 47 42 40 44 42
21 25 29 36 38 40 40 44 46 49 54 56 56 53 55 53 51 49 52 50 48 50 51 52 54 58 66 62 63 52 51 44 46 45 42 49 55 58 55 51 47 44 44
32 34 38 40 42 44 46 49 51 58 62 66 67 63 56 58 57 52 52 55 51 51 55 53 55 58 60 65 62 56 50 47 51 53 55 54 61 66 64 60 56 48 49
42 45 47 48 50 53 55 58 61 67 69 73 68 64 59 59 58 57 55 58 57 54 54 54 57 55 61 55 57 56 49 49 55 53 54 59 59 67 68 68 65 62 65
47 49 51 54 57 60 64 69 72 75 75 72 63 59 62 60 62 60 59 58 65 59 55 54 59 60 53 47 54 54 54 51 52 55 52 60 65 70 68 69 67 66 61
55 58 62 65 69 75 78 78 76 75 75 72 64 56 56 58 62 60 61 66 65 66 59 58 59 57 56 55 49 50 51 47 53 62 56 57 69 66 64 55 60 62 55
66 70 76 77 80 81 79 75 68 68 69 68 67 65 59 55 52 54 58 60 64 70 60 56 57 59 57 58 54 52 52 55 54 53 53 52 61 59 59 69 63 57 51
Wind_Direction_500mb
257 248 247 261 183 207 245 244 239 233 217 206 205 214 231 246 250 249 246 238 246 251 258 259 258 254 257 267 273 270 268 271 273 276 276 277 277 285 277 281 287 281 288
252 224 219 221 196 226 243 253 224 214 202 209 219 228 222 233 260 257 256 254 258 254 256 245 253 254 261 267 274 276 271 273 270 272 266 272 272 274 275 278 282 280 285
241 215 217 239 223 231 232 220 213 222 223 231 228 227 233 243 253 262 261 255 251 247 251 248 244 251 261 267 279 279 274 275 272 270 263 261 261 266 271 271 272 276 281
220 203 220 213 212 221 229 217 211 219 224 229 226 229 234 248 255 258 256 250 250 249 252 252 245 246 256 261 269 276 278 281 277 267 259 255 259 261 265 266 267 269 278
207 205 210 214 227 232 228 217 220 225 231 231 243 231 238 244 247 253 254 249 246 248 251 250 251 257 261 261 262 268 279 280 280 270 261 251 254 256 261 266 263 265 271
228 233 237 236 238 236 236 234 235 238 229 238 235 235 254 261 255 259 262 257 250 250 257 256 254 255 258 266 267 268 273 279 283 273 264 251 252 254 257 262 261 259 265
245 241 243 238 247 239 246 254 253 242 232 240 239 246 256 267 273 265 275 265 257 257 256 258 254 257 261 260 265 268 269 271 275 273 263 253 252 250 253 258 258 258 260
251 248 246 242 242 245 251 259 252 231 222 240 248 258 277 277 271 271 282 273 269 264 258 250 256 259 256 260 258 267 272 266 268 276 271 262 257 256 257 256 255 254 259
254 254 258 258 256 243 245 250 242 240 237 246 251 245 284 305 326 295 305 296 280 269 258 254 258 256 254 257 259 257 263 268 267 270 267 263 260 260 258 256 253 254 259
262 269 270 273 268 263 248 243 243 248 246 250 239 252 256 263 278 295 290 305 279 295 267 290 270 259 255 257 256 253 244 256 262 261 262 262 259 259 259 255 253 253 255
260 271 299 293 270 274 253 248 242 248 253 250 250 251 266 261 263 266 284 286 291 287 282 276 295 276 259 255 250 247 250 257 255 259 258 256 255 255 258 255 252 252 252
260 251 281 327 320 297 273 264 251 251 253 256 257 256 261 271 271 277 276 287 294 294 293 286 295 293 263 252 244 247 257 247 249 254 259 245 246 247 252 255 254 251 247
278 277 280 300 294 294 260 249 253 264 256 258 265 277 268 274 279 279 277 285 290 291 290 298 305 299 253 239 241 240 240 246 252 252 249 237 230 242 252 255 256 255 252
276 269 275 285 275 293 288 260 257 259 259 268 270 269 268 274 279 277 280 286 287 285 287 294 303 314 239 228 236 236 240 244 253 255 246 239 243 247 253 258 255 253 251
271 258 256 246 262 267 274 265 266 276 265 267 275 277 275 277 273 273 270 272 279 278 288 291 296 318 35 242 241 244 247 251 248 244 236 242 249 250 256 254 252 249 247
264 250 239 224 237 258 295 304 304 301 296 293 286 286 291 293 284 273 269 268 262 265 271 276 280 272 279 280 265 246 245 249 250 240 236 235 236 243 249 250 246 247 247
259 225 208 231 264 284 293 297 299 298 293 289 289 292 290 290 287 286 280 265 262 257 262 271 269 272 261 260 263 250 245 249 254 244 238 238 236 242 246 247 247 247 249
227 229 246 267 279 286 286 284 286 289 288 288 287 288 291 289 282 279 283 273 261 261 264 268 273 269 266 253 251 247 236 253 251 246 241 241 243 245 244 245 252 255 253
228 253 275 282 286 288 289 287 289 291 291 290 291 288 280 281 278 275 275 275 274 268 264 262 268 270 270 259 250 248 246 246 249 239 241 236 235 239 247 251 253 258 258
251 275 285 293 299 307 305 297 296 299 303 301 294 285 277 271 271 272 270 269 270 274 273 267 266 267 267 263 263 256 248 249 251 244 245 241 234 233 245 251 255 254 259
274 288 289 296 297 299 300 296 298 303 303 303 299 285 275 270 268 270 271 268 265 265 268 271 269 270 267 264 260 263 261 256 250 247 248 240 233 235 243 249 253 258 259
282 286 286 285 283 282 284 286 292 298 302 301 298 288 275 267 264 265 266 268 264 263 264 267 269 267 273 272 268 267 271 263 260 247 247 244 240 240 245 252 254 257 260
262 258 261 265 268 273 276 280 288 295 298 299 293 281 277 269 265 262 262 265 263 261 261 266 266 270 271 275 266 274 267 267 261 261 261 260 254 253 254 253 252 255 261
263 265 263 265 269 273 277 282 287 292 294 294 286 282 278 273 267 262 262 261 265 259 257 260 264 263 265 274 265 263 269 264 258 258 255 256 257 257 258 261 262 261 261
273 273 275 278 278 280 283 286 289 289 287 283 283 282 281 278 267 264 262 259 259 260 259 262 260 260 260 258 264 263 258 256 259 256 252 259 259 264 265 268 258 258 257
285 284 284 282 284 287 286 289 288 283 282 282 281 280 279 281 274 257 256 258 255 261 265 267 260 257 256 258 255 256 257 256 254 262 259 256 263 267 275 272 267 258 256
Wind_Speed_850mb
34 34 23 11 13 15 16 21 23 24 24 23 22 23 22 20 18 20 24 28 30 32 29 39 33 33 30 27 24 22 21 19 21 24 24 22 22 18 16 18 17 18 16
28 32 31 18 16 13 18 17 19 21 23 24 22 20 18 18 19 18 19 26 33 38 38 36 38 36 32 30 30 26 24 21 21 26 28 22 23 21 17 19 18 18 17
22 30 32 24 31 19 17 13 20 21 23 26 22 19 19 19 20 20 20 19 21 23 26 26 28 30 30 29 28 28 25 23 22 27 29 27 25 24 20 20 20 18 15
24 29 27 21 23 22 19 21 21 20 20 26 24 23 22 22 21 21 23 23 24 23 23 23 26 27 30 28 29 28 26 25 24 27 30 28 27 25 23 22 20 18 16
23 24 21 21 24 22 20 25 25 21 21 24 24 26 25 20 22 20 19 21 29 31 31 29 28 28 28 30 31 30 29 25 25 27 29 30 29 27 25 24 21 19 17
27 27 24 21 26 26 18 22 26 26 25 22 24 23 25 24 25 27 28 27 28 32 34 37 38 40 36 33 32 31 30 28 27 27 26 30 29 30 28 26 23 21 20
31 30 28 28 28 22 18 20 25 30 26 27 25 21 21 26 29 30 27 32 37 36 37 36 36 32 36 37 36 33 28 25 25 25 26 29 30 29 29 29 26 24 23
32 35 31 28 28 26 23 21 20 24 29 25 27 21 14 22 25 26 29 28 30 39 41 40 38 38 34 33 29 25 29 25 24 22 25 27 30 28 28 28 26 25 23
31 33 35 33 35 33 29 23 20 21 27 26 24 15 8 3 12 9 17 25 32 29 34 39 46 41 39 37 38 34 33 29 27 23 21 22 25 25 26 26 26 24 22
32 28 30 32 33 33 32 29 26 27 28 28 28 27 26 29 21 19 18 24 15 26 24 23 30 37 43 42 40 38 36 34 30 27 25 20 22 23 24 25 26 24 21
19 16 18 17 29 30 28 26 34 32 31 31 33 28 28 27 29 35 41 26 25 30 30 29 26 34 43 40 37 39 39 39 36 32 30 24 24 21 23 23 24 23 21
19 21 21 8 17 20 26 30 33 37 37 35 32 31 30 29 31 28 30 35 41 33 27 25 33 36 42 44 42 40 41 30 31 34 35 29 24 22 22 23 22 21 20
16 15 19 14 17 18 22 25 27 27 36 44 36 30 33 34 33 35 36 38 41 42 42 35 31 37 40 43 38 35 35 33 28 30 32 34 28 24 24 25 25 23 22
16 15 15 17 17 17 13 17 24 24 32 36 37 37 36 40 41 39 39 41 45 44 46 42 30 27 25 33 34 36 38 36 32 30 38 39 35 32 32 29 30 29 28
25 21 19 16 13 11 13 16 18 17 21 26 31 36 40 41 39 40 43 45 44 42 50 46 29 6 7 18 32 37 39 34 33 32 40 40 38 33 32 35 34 34 32
24 22 15 9 7 5 7 9 13 18 24 24 27 32 36 35 35 38 39 40 44 46 57 47 40 25 26 17 15 27 36 39 36 35 41 41 37 34 34 35 33 33 35
22 18 14 12 13 14 17 21 24 26 28 30 32 36 36 35 34 34 33 41 41 45 54 55 48 35 29 26 20 22 27 40 39 42 44 44 38 33 31 34 36 35 35
22 19 19 19 20 25 29 32 33 34 34 36 39 41 42 38 34 33 30 33 41 47 52 59 52 49 38 32 31 27 24 28 41 44 46 46 46 44 38 35 35 39 41
18 19 22 29 31 33 37 40 40 39 37 39 40 39 34 36 38 32 32 30 31 39 47 58 64 59 51 42 39 39 39 34 35 45 50 46 52 42 41 41 40 40 42
18 21 28 32 32 34 34 35 35 40 45 46 48 48 47 47 47 47 47 44 41 42 44 50 58 63 62 56 53 48 45 45 38 39 45 51 56 51 47 42 40 44 42
21 25 29 36 38 40 40 44 46 49 54 56 56 53 55 53 51 49 52 50 48 50 51 52 54 58 66 62 63 52 51 44 46 45 42 49 55 58 55 51 47 44 44
32 34 38 40 42 44 46 49 51 58 62 66 67 63 56 58 57 52 52 55 51 51 55 53 55 58 60 65 62 56 50 47 51 53 55 54 61 66 64 60 56 48 49
42 45 47 48 50 53 55 58 61 67 69 73 68 64 59 59 58 57 55 58 57 54 54 54 57 55 61 55 57 56 49 49 55 53 54 59 59 67 68 68 65 62 65
47 49 51 54 57 60 64 69 72 75 75 72 63 59 62 60 62 60 59 58 65 59 55 54 59 60 53 47 54 54 54 51 52 55 52 60 65 70 68 69 67 66 61
55 58 62 65 69 75 78 78 76 75 75 72 64 56 56 58 62 60 61 66 65 66 59 58 59 57 56 55 49 50 51 47 53 62 56 57 69 66 64 55 60 62 55
66 70 76 77 80 81 79 75 68 68 69 68 67 65 59 55 52 54 58 60 64 70 60 56 57 59 57 58 54 52 52 55 54 53 53 52 61 59 59 69 63 57 51
Wind_Direction_850mb
257 248 247 261 183 207 245 244 239 233 217 206 205 214 231 246 250 249 246 238 246 251 258 259 258 254 257 267 273 270 268 271 273 276 276 277 277 285 277 281 287 281 288
252 224 219 221 196 226 243 253 224 214 202 209 219 228 222 233 260 257 256 254 258 254 256 245 253 254 261 267 274 276 271 273 270 272 266 272 272 274 275 278 282 280 285
241 215 217 239 223 231 232 220 213 222 223 231 228 227 233 243 253 262 261 255 251 247 251 248 244 251 261 267 279 279 274 275 272 270 263 261 261 266 271 271 272 276 281
220 203 220 213 212 221 229 217 211 219 224 229 226 229 234 248 255 258 256 250 250 249 252 252 245 246 256 261 269 276 278 281 277 267 259 255 259 261 265 266 267 269 278
207 205 210 214 227 232 228 217 220 225 231 231 243 231 238 244 247 253 254 249 246 248 251 250 251 257 261 261 262 268 279 280 280 270 261 251 254 256 261 266 263 265 271
228 233 237 236 238 236 236 234 235 238 229 238 235 235 254 261 255 259 262 257 250 250 257 256 254 255 258 266 267 268 273 279 283 273 264 251 252 254 257 262 261 259 265
245 241 243 238 247 239 246 254 253 242 232 240 239 246 256 267 273 265 275 265 257 257 256 258 254 257 261 260 265 268 269 271 275 273 263 253 252 250 253 258 258 258 260
251 248 246 242 242 245 251 259 252 231 222 240 248 258 277 277 271 271 282 273 269 264 258 250 256 259 256 260 258 267 272 266 268 276 271 262 257 256 257 256 255 254 259
254 254 258 258 256 243 245 250 242 240 237 246 251 245 284 305 326 295 305 296 280 269 258 254 258 256 254 257 259 257 263 268 267 270 267 263 260 260 258 256 253 254 259
262 269 270 273 268 263 248 243 243 248 246 250 239 252 256 263 278 295 290 305 279 295 267 290 270 259 255 257 256 253 244 256 262 261 262 262 259 259 259 255 253 253 255
260 271 299 293 270 274 253 248 242 248 253 250 250 251 266 261 263 266 284 286 291 287 282 276 295 276 259 255 250 247 250 257 255 259 258 256 255 255 258 255 252 252 252
260 251 281 327 320 297 273 264 251 251 253 256 257 256 261 271 271 277 276 287 294 294 293 286 295 293 263 252 244 247 257 247 249 254 259 245 246 247 252 255 254 251 247
278 277 280 300 294 294 260 249 253 264 256 258 265 277 268 274 279 279 277 285 290 291 290 298 305 299 253 239 241 240 240 246 252 252 249 237 230 242 252 255 256 255 252
276 269 275 285 275 293 288 260 257 259 259 268 270 269 268 274 279 277 280 286 287 285 287 294 303 314 239 228 236 236 240 244 253 255 246 239 243 247 253 258 255 253 251
271 258 256 246 262 267 274 265 266 276 265 267 275 277 275 277 273 273 270 272 279 278 288 291 296 318 35 242 241 244 247 251 248 244 236 242 249 250 256 254 252 249 247
264 250 239 224 237 258 295 304 304 301 296 293 286 286 291 293 284 273 269 268 262 265 271 276 280 272 279 280 265 246 245 249 250 240 236 235 236 243 249 250 246 247 247
259 225 208 231 264 284 293 297 299 298 293 289 289 292 290 290 287 286 280 265 262 257 262 271 269 272 261 260 263 250 245 249 254 244 238 238 236 242 246 247 247 247 249
227 229 246 267 279 286 286 284 286 289 288 288 287 288 291 289 282 279 283 273 261 261 264 268 273 269 266 253 251 247 236 253 251 246 241 241 243 245 244 245 252 255 253
228 253 275 282 286 288 289 287 289 291 291 290 291 288 280 281 278 275 275 275 274 268 264 262 268 270 270 259 250 248 246 246 249 239 241 236 235 239 247 251 253 258 258
251 275 285 293 299 307 305 297 296 299 303 301 294 285 277 271 271 272 270 269 270 274 273 267 266 267 267 263 263 256 248 249 251 244 245 241 234 233 245 251 255 254 259
274 288 289 296 297 299 300 296 298 303 303 303 299 285 275 270 268 270 271 268 265 265 268 271 269 270 267 264 260 263 261 256 250 247 248 240 233 235 243 249 253 258 259
282 286 286 285 283 282 284 286 292 298 302 301 298 288 275 267 264 265 266 268 264 263 264 267 269 267 273 272 268 267 271 263 260 247 247 244 240 240 245 252 254 257 260
262 258 261 265 268 273 276 280 288 295 298 299 293 281 277 269 265 262 262 265 263 261 261 266 266 270 271 275 266 274 267 267 261 261 261 260 254 253 254 253 252 255 261
263 265 263 265 269 273 277 282 287 292 294 294 286 282 278 273 267 262 262 261 265 259 257 260 264 263 265 274 265 263 269 264 258 258 255 256 257 257 258 261 262 261 261
273 273 275 278 278 280 283 286 289 289 287 283 283 282 281 278 267 264 262 259 259 260 259 262 260 260 260 258 264 263 258 256 259 256 252 259 259 264 265 268 258 258 257
285 284 284 282 284 287 286 289 288 283 282 282 281 280 279 281 274 257 256 258 255 261 265 267 260 257 256 258 255 256 257 256 254 262 259 256 263 267 275 272 267 258 256